sat.trackr.live / text

‹ back to catalog

STARLINK-30236

NORAD 57300 · 2023-096L

PAYLOAD ACTIVE UNKNOWN

§ Identity

Operator
Country
US
Launch date
2023-07-10
Launch site
AFETR
Launch vehicle
Mass (kg)
RCS (m²)

Purposes: comms

External: N2YO · Heavens-Above · Gunter

§ Orbital elements

Epoch: 2026-05-25T00:57:57.339072Z

Period
94.27 min
Inclination
42.9992°
Eccentricity
0.0001444
Mean motion
15.27587934 rev/d
Perigee alt
482.0 km
Apogee alt
484.0 km
Semi-major
6,861.2 km
B*
-1.1598e-5
RAAN
152.0289°
Arg perigee
274.8595°
Mean anomaly
85.2091°
Rev number
15,933

§ Raw data

STARLINK-302361 57300U 23096L   26145.04024698 -.00000581  00000+0 -11598-4 0  99992 57300  42.9992 152.0289 0001444 274.8595  85.2091 15.27587934159339

JSON: /api/v1/satellites/57300 · /tle

For live sub-satellite position, see the globe view (requires WebGL).

§ Visibility from observer

Set your observer location to see the next 7 days of passes ≥ 10°. The values pass through the URL so the page stays shareable.

No JS? Fill the form by hand. The geolocation button needs JavaScript.